Simultaneous Nadir Overpasses (SNOs) Predictions

Prediction of SNOs between AQUA and NOAA-19 Satellite Orbit:

Table of predicted SNOs for the next 14.0 days since TLE Epoch: 2/11/2017
Index Date (AQUA) Time (AQUA) Lat,Lon (AQUA) SZA (AQUA ) Date (NOAA-19) Time (NOAA-19) Lat,Lon (NOAA-19) SZA (NOAA-19 ) Distance(km) Time Diff (sec)
1 02/13/2017 04:32:19 -80.95,-108.73 83.30 02/13/2017 04:32:08 -80.95,-108.57 83.31 2.71 11
2 02/15/2017 10:06:05 80.95, -12.17 95.95 02/15/2017 10:06:03 80.96, -12.07 95.94 1.74 2
3 02/17/2017 15:39:51 -80.97, 84.12 84.79 02/17/2017 15:39:56 -80.96, 84.21 84.81 2.09 5
4 02/19/2017 21:13:36 80.95,-179.07 94.38 02/19/2017 21:13:51 80.96,-178.95 94.36 2.27 15
5 02/22/2017 01:57:55 80.96, 109.77 93.60 02/22/2017 01:56:46 80.96, 109.62 93.65 2.54 69
6 02/22/2017 02:47:21 -80.95, -82.44 86.44 02/22/2017 02:47:42 -80.96, -82.34 86.46 1.81 21
7 02/24/2017 07:31:39 -80.95,-153.59 87.24 02/24/2017 07:30:35 -80.96,-153.59 87.21 0.61 64




NCC Satellite Simultaneous Nadir Overpasses (SNOs) Prediction Service
